Lorentz, WV

7:07 AM EDT on July 26, 2016 (GMT -0400)
Buckhannon

Weather History for KW22 - July, 2013

Change the Weather History Date:

Wednesday, July 3, 2013

  Actual Average (KEKN) Record (KEKN)
Temperature  
Mean Temperature 72 °F 70 °F  
Max Temperature 80 °F 81 °F 92 °F (1911)
Min Temperature 64 °F 58 °F 40 °F (1988)
Degree Days  
Heating Degree Days 0 1  
Month to date heating degree days 3  
Since 1 June heating degree days 58  
Since 1 July heating degree days 3  
Cooling Degree Days 7 5  
Month to date cooling degree days 15  
Year to date cooling degree days 130  
Since 1 June cooling degree days 107  
Growing Degree Days 22 (Base 50)    
Moisture  
Dew Point 66 °F    
Average Humidity 79    
Maximum Humidity 100    
Minimum Humidity 58    
Precipitation  
Precipitation 0.00 in 0.17 in 1.54 in (1908)
Month to date precipitation 0.52  
Year to date precipitation 24.13  
Snow  
Snow 0.00 in - - ()
Month to date snowfall  
Since 1 September snowfall  
Snow Depth -    
Sea Level Pressure  
Sea Level Pressure 30.20 in    
Wind  
Wind Speed 1 mph (SSW)    
Max Wind Speed 10 mph    
Max Gust Speed -    
Visibility 10 miles    
Events      
T = Trace of Precipitation, MM = Missing Value Source: NWS Daily Summary

Daily Weather History Graph

Daily Weather History Graph

Search for Another Location

Airport or City:

Trip Planner

Search our weather history database for the weather conditions in past years. The results will help you decide how hot, cold, wet, or windy it might be!

Date:

Astronomy

Jul. 03, 2013 Rise Set
Actual Time 6:00 AM EDT 8:50 PM EDT
Civil Twilight 5:28 AM EDT 9:22 PM EDT
Nautical Twilight 4:48 AM EDT 10:02 PM EDT
Astronomical Twilight 4:02 AM EDT 10:47 PM EDT
Moon 2:36 AM EDT (7/3) 5:00 PM EDT (7/3)
Length of Visible Light 15h 53m
Length of Day
14h 50m
Waning Crescent, 18% of the Moon is Illuminated
Jul 3
Waning Crescent
Jul 8
New
Jul 15
First Quarter
Jul 22
Full
Jul 29
Last Quarter

Hourly Weather History & Observations

Time (EDT) Temp. Heat Index Dew Point Humidity Pressure Visibility Wind Dir Wind Speed Gust Speed Precip Events Conditions
12:15 AM 71.6 °F - 64.4 °F 78% 30.14 in 10.0 mi Calm Calm - N/A   Partly Cloudy
12:35 AM 71.6 °F - 64.4 °F 78% 30.14 in 10.0 mi Calm Calm - N/A   Clear
12:55 AM 71.6 °F - 64.4 °F 78% 30.14 in 10.0 mi Calm Calm - N/A   Clear
1:15 AM 69.8 °F - 66.2 °F 88% 30.15 in 10.0 mi Calm Calm - N/A   Clear
1:35 AM 69.8 °F - 64.4 °F 83% 30.15 in 10.0 mi Calm Calm - N/A   Clear
1:55 AM 69.8 °F - 66.2 °F 88% 30.15 in 10.0 mi South 4.6 mph - N/A   Clear
2:15 AM 66.2 °F - 66.2 °F 100% 30.14 in 10.0 mi Calm Calm - N/A   Clear
2:35 AM 69.8 °F - 66.2 °F 88% 30.14 in 10.0 mi Calm Calm - N/A   Clear
2:55 AM 68.0 °F - 66.2 °F 94% 30.14 in 10.0 mi Calm Calm - N/A   Clear
3:15 AM 68.0 °F - 66.2 °F 94% 30.14 in 10.0 mi Calm Calm - N/A   Clear
3:35 AM 66.2 °F - 66.2 °F 100% 30.14 in 10.0 mi Calm Calm - N/A   Clear
3:55 AM 66.2 °F - 66.2 °F 100% 30.14 in 10.0 mi Calm Calm - N/A   Clear
4:15 AM 66.2 °F - 66.2 °F 100% 30.15 in 10.0 mi Calm Calm - N/A   Clear
4:35 AM 66.2 °F - 66.2 °F 100% 30.15 in 10.0 mi Calm Calm - N/A   Clear
4:55 AM 66.2 °F - 66.2 °F 100% 30.16 in 10.0 mi Calm Calm - N/A   Clear
5:15 AM 66.2 °F - 66.2 °F 100% 30.17 in 10.0 mi Calm Calm - N/A   Clear
5:35 AM 66.2 °F - 66.2 °F 100% 30.17 in 10.0 mi Calm Calm - N/A   Clear
5:55 AM 64.4 °F - 64.4 °F 100% 30.17 in 10.0 mi Calm Calm - N/A   Clear
6:15 AM 64.4 °F - 64.4 °F 100% 30.18 in 10.0 mi Calm Calm - N/A   Clear
6:35 AM 66.2 °F - 66.2 °F 100% 30.19 in 10.0 mi Calm Calm - N/A   Clear
6:55 AM 66.2 °F - 66.2 °F 100% 30.19 in 10.0 mi Calm Calm - N/A   Clear
7:15 AM 66.2 °F - 66.2 °F 100% 30.20 in 10.0 mi Calm Calm - N/A   Clear
7:35 AM 68.0 °F - 66.2 °F 94% 30.20 in 10.0 mi Calm Calm - N/A   Clear
7:55 AM 69.8 °F - 69.8 °F 100% 30.21 in 10.0 mi Calm Calm - N/A   Clear
8:15 AM 69.8 °F - 68.0 °F 94% 30.21 in 10.0 mi Calm Calm - N/A   Clear
8:35 AM 71.6 °F - 66.2 °F 83% 30.22 in 10.0 mi Calm Calm - N/A   Clear
8:55 AM 73.4 °F - 66.2 °F 78% 30.22 in 10.0 mi Calm Calm - N/A   Clear
9:15 AM 73.4 °F - 66.2 °F 78% 30.23 in 10.0 mi Calm Calm - N/A   Clear
9:35 AM 73.4 °F - 66.2 °F 78% 30.23 in 10.0 mi South 3.5 mph - N/A   Clear
9:55 AM 75.2 °F - 66.2 °F 73% 30.23 in 10.0 mi Calm Calm - N/A   Clear
10:15 AM 75.2 °F - 66.2 °F 73% 30.24 in 10.0 mi SSW 5.8 mph - N/A   Clear
10:35 AM 77.0 °F - 66.2 °F 69% 30.24 in 10.0 mi SSW 3.5 mph - N/A   Clear
10:55 AM 78.8 °F - 66.2 °F 65% 30.25 in 10.0 mi SSW 4.6 mph - N/A   Clear
11:15 AM 78.8 °F - 66.2 °F 65% 30.25 in 10.0 mi SSW 3.5 mph - N/A   Clear
11:35 AM 78.8 °F - 66.2 °F 65% 30.24 in 10.0 mi SW 4.6 mph - N/A   Clear
11:55 AM 78.8 °F - 66.2 °F 65% 30.24 in 10.0 mi Calm Calm - N/A   Clear
12:15 PM 80.6 °F 82.3 °F 64.4 °F 58% 30.24 in 10.0 mi WSW 5.8 mph - N/A   Clear
12:35 PM 80.6 °F 82.7 °F 66.2 °F 61% 30.24 in 10.0 mi SSW 6.9 mph - N/A   Clear
12:55 PM 80.6 °F 82.7 °F 66.2 °F 61% 30.24 in 10.0 mi West 8.1 mph - N/A   Clear
1:15 PM 80.6 °F 82.7 °F 66.2 °F 61% 30.24 in 10.0 mi WSW 5.8 mph - N/A   Clear
1:35 PM 80.6 °F 82.7 °F 66.2 °F 61% 30.23 in 10.0 mi South 4.6 mph - N/A   Clear
1:55 PM 80.6 °F 82.7 °F 66.2 °F 61% 30.23 in 10.0 mi SSW 5.8 mph - N/A   Partly Cloudy
2:15 PM 80.6 °F 82.7 °F 66.2 °F 61% 30.22 in 10.0 mi SW 3.5 mph - N/A   Partly Cloudy
2:35 PM 80.6 °F 82.7 °F 66.2 °F 61% 30.22 in 10.0 mi WSW 6.9 mph - N/A   Partly Cloudy
2:55 PM 80.6 °F 82.7 °F 66.2 °F 61% 30.22 in 10.0 mi SSW 3.5 mph - N/A   Clear
3:15 PM 80.6 °F 82.7 °F 66.2 °F 61% 30.21 in 10.0 mi SW 4.6 mph - N/A   Clear
3:35 PM 80.6 °F 82.7 °F 66.2 °F 61% 30.21 in 10.0 mi SW 4.6 mph - N/A   Clear
3:55 PM 78.8 °F - 69.8 °F 74% 30.21 in 10.0 mi SW 3.5 mph - N/A   Clear
4:15 PM 78.8 °F - 69.8 °F 74% 30.21 in 10.0 mi WSW 3.5 mph - N/A   Clear
4:35 PM 78.8 °F - 69.8 °F 74% 30.21 in 10.0 mi Calm Calm - N/A   Scattered Clouds
4:55 PM 77.0 °F - 69.8 °F 78% 30.21 in 10.0 mi SSE 3.5 mph - N/A   Mostly Cloudy
5:15 PM 78.8 °F - 69.8 °F 74% 30.20 in 10.0 mi South 4.6 mph - N/A   Scattered Clouds
5:35 PM 78.8 °F - 69.8 °F 74% 30.20 in 10.0 mi Calm Calm - N/A   Clear
5:55 PM 78.8 °F - 69.8 °F 74% 30.19 in 10.0 mi SSE 3.5 mph - N/A   Clear
6:15 PM 78.8 °F - 66.2 °F 65% 30.19 in 10.0 mi South 6.9 mph - N/A   Clear
6:35 PM 78.8 °F - 66.2 °F 65% 30.20 in 10.0 mi South 10.4 mph - N/A   Scattered Clouds
6:55 PM 78.8 °F - 66.2 °F 65% 30.20 in 10.0 mi South 10.4 mph - N/A   Partly Cloudy
7:15 PM 77.0 °F - 64.4 °F 65% 30.20 in 10.0 mi South 8.1 mph - N/A   Clear
7:35 PM 75.2 °F - 64.4 °F 69% 30.20 in 10.0 mi South 5.8 mph - N/A   Clear
7:55 PM 75.2 °F - 64.4 °F 69% 30.21 in 10.0 mi Calm Calm - N/A   Clear
8:15 PM 75.2 °F - 66.2 °F 73% 30.21 in 10.0 mi Calm Calm - N/A   Clear
8:35 PM 75.2 °F - 66.2 °F 73% 30.21 in 10.0 mi Calm Calm - N/A   Clear
8:55 PM 75.2 °F - 64.4 °F 69% 30.21 in 10.0 mi Calm Calm - N/A   Clear
9:15 PM 73.4 °F - 64.4 °F 73% 30.22 in 10.0 mi Calm Calm - N/A   Clear
9:35 PM 73.4 °F - 66.2 °F 78% 30.23 in 10.0 mi Calm Calm - N/A   Clear
9:55 PM 73.4 °F - 66.2 °F 78% 30.24 in 10.0 mi Calm Calm - N/A   Clear
10:15 PM 71.6 °F - 66.2 °F 83% 30.24 in 10.0 mi Calm Calm - N/A   Clear
10:35 PM 71.6 °F - 66.2 °F 83% 30.24 in 10.0 mi Calm Calm - N/A   Clear
10:55 PM 71.6 °F - 68.0 °F 88% 30.24 in 10.0 mi Calm Calm - N/A   Light Drizzle
11:15 PM 69.8 °F - 68.0 °F 94% 30.24 in 10.0 mi Calm Calm - N/A   Clear
11:35 PM 69.8 °F - 68.0 °F 94% 30.24 in 10.0 mi ESE 4.6 mph - N/A   Light Drizzle
11:55 PM 69.8 °F - 69.8 °F 100% 30.24 in 10.0 mi Calm Calm - N/A   Clear